Content
SEND FEEDBACK

Daily
Averages
Monthly
Summary
Yemen

CRATER, YEMEN


Home > Middle East > Yemen
Elevation: 10 feet     Latitude: 12 40N     Longitude: 045 01E

WEATHER
 
SELECT A DAY
Number of Records: 98,006;   Date Range: 7/2/96 - 7/26/14
 
SHARE

PRINT THIS DATA

[ ← Previous Day ]
WEATHER ALMANAC - FEBRUARY 5, 2013
[ Next Day → ]
[ °C ]   °F
Weather ElementAverageHighLow
Temperature78.5 °F83 °F (12:00 pm)77 °F (3:00 am)
Dewpoint63.9 °F68 °F (1:00 am)59 °F (6:00 pm)
Humidity58 %69 % (1:00 am)36 % (12:00 pm)
Barometer30.04 in30.09 in (9:00 am)29.98 in (4:00 am)
Wind Speed18.2 mph21.9 mph (12:00 pm)
Weather ElementAverage
Visibility4.9 mi
Wind DirectionE (89 °)

Weather ElementTotal
Precipitation---
Cooling Degree Days15 (Base 65)
Growing Degree Days30 (Base 50)
Averaged from 20 records on February 5, 2013
WEATHER CONDITIONS BREAKOUT
WIND DIRECTION BREAKOUT
WEATHER BY HOUR - FEBRUARY 5, 2013
[ °C ]   °F
Local TimeTemperatureDewpointHumidityBarometerVisibilityWind DirectionWind SpeedGust SpeedPrecipitationEventsConditions
1:00 AM78.8 °F68.0 °F69 %30.04 in5.0 miEast (90°)16.1 mphScattered Clouds
2:00 AM78.8 °F68.0 °F69 %30.01 in5.0 miEast (90°)16.1 mphScattered Clouds
3:00 AM77.0 °F66.0 °F60 %30.01 in5.0 miEast (90°)16.1 mphHaze
3:00 AM77.0 °F66.2 °F69 %30.01 in5.0 miEast (90°)16.1 mphPartly Cloudy
4:00 AM77.0 °F64.4 °F65 %29.98 in5.0 miEast (80°)18.4 mphPartly Cloudy
5:00 AM77.0 °F64.4 °F65 %30.01 in5.0 miEast (90°)17.3 mphScattered Clouds
6:00 AM77.0 °F64.0 °F54 %30.03 in5.0 miEast (90°)19.6 mphHaze
6:00 AM77.0 °F64.4 °F65 %30.01 in5.0 miEast (90°)19.6 mphScattered Clouds
7:00 AM77.0 °F64.4 °F65 %30.04 in5.0 miEast (90°)18.4 mphScattered Clouds
8:00 AM78.8 °F66.2 °F65 %30.06 in5.0 miEast (90°)17.3 mphScattered Clouds
9:00 AM80.6 °F66.2 °F61 %30.09 in6.2 miEast (90°)20.7 mphScattered Clouds
9:00 AM80.0 °F66.0 °F53 %30.09 in6.0 miEast (90°)20.7 mphPartly Cloudy
10:00 AM80.6 °F64.4 °F58 %30.09 in5.0 miEast (90°)19.6 mphScattered Clouds
12:00 PM83.0 °F60.0 °F36 %6.0 miEast (90°)21.9 mphPartly Cloudy
3:00 PM82.0 °F60.0 °F38 %29.99 in4.0 miESE (110°)19.6 mphHaze
6:00 PM80.0 °F59.0 °F39 %30.02 in4.0 miEast (100°)17.3 mphHaze
9:00 PM77.0 °F63.0 °F53 %30.08 in4.0 miEast (80°)15.0 mphHaze
9:00 PM77.0 °F62.6 °F61 %30.06 in4.3 miEast (80°)15.0 mphPartly Cloudy
10:00 PM77.0 °F60.8 °F57 %30.06 in4.3 miEast (80°)17.3 mphPartly Cloudy
11:00 PM77.0 °F60.8 °F57 %30.06 in4.3 miEast (80°)21.9 mphPartly Cloudy
Hourly data recorded from OYAA, located miles away from Crater, Yemen







STORIES FROM OUR PARTNERS